{"data":{"norad_id":67567,"epoch":"2026-05-25T03:18:56.047680Z","epoch_age_seconds":63350,"freshness":"FRESH","line1":"1 67567U 26016G   26145.13814870  .00017377  00000+0  53932-3 0  9995","line2":"2 67567  97.2853 205.5248 0000339  72.2290 287.8990 15.33447416 18583","mean_motion":15.33447416,"eccentricity":3.39e-5,"inclination_deg":97.2853,"raan_deg":205.5248,"arg_perigee_deg":72.229,"mean_anomaly_deg":287.899,"bstar":0.00053932,"rev_number":1858,"period_min":93.906056704327,"perigee_km":465.30398565714,"apogee_km":465.7679866856,"semimajor_km":6843.6729861714,"source":"CELESTRAK","updated_at":"2026-05-25T13:38:21.613767Z"}}